This is the latest recevied weather packets stored in our database for station/object KI4MRC. If no packets are shown the sender has not sent any weather packets the latest 10 day(s).
| Time | Temp. | Humidity | Pressure | Rain* | Wind** | Luminosity | Snow |
|---|---|---|---|---|---|---|---|
| 1778023828 | 25.56° C | 79% | 1014.5 hPa | 0 mm | - | 15 W/m² | - |
| 1778023526 | 25.56° C | 79% | 1014.3 hPa | 0 mm | - | 20 W/m² | - |
| 1778023223 | 25.56° C | 79% | 1014.4 hPa | 0 mm | - | 22 W/m² | - |
| 1778022920 | 25.56° C | 78% | 1014.2 hPa | 0 mm | - | 24 W/m² | - |
| 1778022619 | 25.56° C | 78% | 1014.5 hPa | 0 mm | - | 31 W/m² | - |
| 1778022315 | 25.56° C | 78% | 1014.3 hPa | 0 mm | - | 35 W/m² | - |
| 1778022012 | 26.11° C | 77% | 1014.4 hPa | 0 mm | - | 41 W/m² | - |
| 1778021709 | 26.11° C | 77% | 1014.4 hPa | 0 mm | - | 45 W/m² | - |
| 1778021405 | 26.11° C | 77% | 1014.5 hPa | 0 mm | - | 55 W/m² | - |
| 1778021102 | 26.11° C | 77% | 1014.5 hPa | 0 mm | - | 60 W/m² | - |
| 1778020799 | 26.11° C | 77% | 1014.4 hPa | 0 mm | - | 63 W/m² | - |
| 1778020496 | 26.11° C | 76% | 1014.2 hPa | 0 mm | - | 76 W/m² | - |
| 1778020192 | 26.11° C | 76% | 1014.4 hPa | 0 mm | - | 75 W/m² | - |
| 1778019889 | 26.67° C | 75% | 1014.2 hPa | 0 mm | - | 79 W/m² | - |
| 1778019584 | 26.67° C | 76% | 1014.2 hPa | 0 mm | - | 72 W/m² | - |
| 1778019282 | 26.67° C | 74% | 1014.3 hPa | 0 mm | - | 70 W/m² | - |
| 1778018979 | 27.22° C | 74% | 1014.2 hPa | 0 mm | - | 74 W/m² | - |
| 1778018676 | 27.22° C | 73% | 1014.1 hPa | 0 mm | - | 86 W/m² | - |
| 1778018373 | 27.22° C | 73% | 1014.3 hPa | 0 mm | - | 112 W/m² | - |
| 1778018071 | 27.22° C | 73% | 1014 hPa | 0 mm | - | 89 W/m² | - |
| 1778017769 | 27.22° C | 73% | 1014.2 hPa | 0 mm | - | 77 W/m² | - |
| 1778017467 | 27.22° C | 71% | 1014 hPa | 0 mm | - | 94 W/m² | - |
| 1778017164 | 27.22° C | 71% | 1014 hPa | 0 mm | - | 138 W/m² | - |
| 1778016861 | 27.22° C | 71% | 1013.8 hPa | 0 mm | - | 98 W/m² | - |
| 1778016557 | 27.22° C | 72% | 1013.9 hPa | 0 mm | - | 124 W/m² | - |
* Rain latest hour (hover to see other rain measurements)
** Current wind speed in m/s (hover to see current wind gust speed)